Find Starlink 35001

NORAD ID: 65280 Int'l Des: 2025-184 Owner: SPXS Country: US Constellation: starlink operational
LEOCIRCULARRETROGRADESSO

現在のビュー

3D地球を読み込み中...

About Starlink 35001

Starlink 35001 (NORAD 65280) is a starlink constellation satellite (v2 mini) launched Aug 22, 2025 by SPXS of US. It operates in LEO, CIRCULAR, RETROGRADE, SSO orbit with a mass of 575.00 kg.

次回通過

Passes for default location (London). Set your location on the main map for personalized predictions.

高度履歴

Loading altitude history...

軌道要素

1 65280U 25184H 26225.12584593 .00101675 00000-0 60242-2 0 9991
2 65280 97.2840 273.6499 0010487 134.4773 225.7316 15.10881703 54843
Epoch: Aug 13, 2026 • Age: 10 hours

現在のステータス

高度 539.5 km
遠地点 / 近地点 N/A
速度 7.60 km/s
衛星直下点 41.58°N, 114.47°E
打ち上げ日 Aug 22, 2025
運用期間 0.9 years
タイプ internet

技術仕様

分類 Payload
質量 575.00 kg
乾燥質量 530.00 kg
総質量 575.00 kg
長さ 0.30 m
直径 4.10 m
スパン 29.00 m
形状 Box + pan
製造者 SPXS
バスタイプ Starlink V2MO
フェーズステータス In Orbit
所有者/国 SPXS/US

Most Searched